Content
SEND FEEDBACK

Daily
Averages
Monthly
Summary
Uruguay

RADIAL CONCHILLAS, URUGUAY


Home > South America > Uruguay
Elevation: 4 feet     Latitude: 34 11S     Longitude: 058 14W

WEATHER
 
SELECT A DAY
Number of Records: 164,537;   Date Range: 6/30/96 - 8/31/14
 
SHARE

PRINT THIS DATA

[ ← Previous Day ]
WEATHER ALMANAC - JANUARY 23, 2013
[ Next Day → ]
[ °C ]   °F
Weather ElementAverageHighLow
Temperature79.7 °F84.2 °F (2:00 pm)73.4 °F (5:00 am)
Dewpoint70.7 °F73.4 °F (12:00 pm)68 °F (12:00 am)
Humidity73 %88 % (5:00 am)62 % (4:00 pm)
Barometer29.84 in29.98 in (12:00 am)29.68 in (8:00 pm)
Wind Speed6.3 mph10.4 mph (12:00 am)
Weather ElementAverage
Visibility6 mi
Wind DirectionSSE (144.1 °)

Weather ElementTotal
Precipitation---
Cooling Degree Days13.8 (Base 65)
Growing Degree Days28.8 (Base 50)
Averaged from 32 records on January 23, 2013
WEATHER CONDITIONS BREAKOUT
WIND DIRECTION BREAKOUT
WEATHER BY HOUR - JANUARY 23, 2013
[ °C ]   °F
Local TimeTemperatureDewpointHumidityBarometerVisibilityWind DirectionWind SpeedGust SpeedPrecipitationEventsConditions
12:00 AM75.2 °F68.0 °F78 %29.98 inESE (110°)10.4 mphClear
1:00 AM75.2 °F69.8 °F83 %29.95 inEast (90°)9.2 mphClear
2:00 AM75.2 °F69.8 °F83 %29.95 inEast (90°)6.9 mphClear
3:00 AM74.0 °F69.0 °F79 %29.94 in6.0 miEast (90°)5.8 mphScattered Clouds
3:00 AM75.2 °F68.0 °F78 %29.92 inEast (90°)5.8 mphClear
4:00 AM75.2 °F69.8 °F83 %29.92 inESE (110°)4.6 mphClear
5:00 AM73.4 °F69.8 °F88 %29.89 inEast (90°)4.6 mphClear
6:00 AM75.2 °F69.8 °F83 %29.92 in6.2 miENE (70°)2.3 mphPartly Cloudy
6:00 AM76.0 °F70.0 °F77 %29.93 in6.0 miENE (70°)2.3 mphScattered Clouds
7:00 AM78.8 °F68.0 °F69 %29.92 inNE (50°)6.9 mphPartly Cloudy
8:00 AM77.0 °F68.0 °F74 %29.92 in6.2 miNNE (20°)9.2 mphPartly Cloudy
9:00 AM78.0 °F69.0 °F67 %29.93 in6.0 miNorth9.2 mphScattered Clouds
9:00 AM77.0 °F69.8 °F78 %29.92 in6.2 miNorth (360°)9.2 mphPartly Cloudy
10:00 AM78.8 °F69.8 °F74 %29.89 inNorth (360°)6.9 mphClear
11:00 AM80.6 °F71.6 °F74 %29.89 inNorth (360°)5.8 mphClear
12:00 PM82.4 °F73.4 °F74 %29.86 in6.2 miNorth (360°)6.9 mphPartly Cloudy
12:00 PM83.0 °F73.0 °F64 %29.88 in6.0 miNorth6.9 mphScattered Clouds
1:00 PM82.4 °F71.6 °F70 %29.86 in6.2 miNNE (20°)8.1 mphScattered Clouds
2:00 PM84.2 °F73.4 °F70 %29.80 in6.2 miNE (50°)8.1 mphPartly Cloudy
3:00 PM83.0 °F72.0 °F63 %29.81 in5.0 miNorth9.2 mphRainLight Rain
3:00 PM82.4 °F71.6 °F70 %29.80 in5.0 miNorth (360°)9.2 mphRainRain
3:15 PM82.4 °F71.6 °F70 %29.80 in6.2 miENE (70°)10.4 mphPartly Cloudy
4:00 PM84.2 °F69.8 °F62 %29.77 in6.2 miNE (50°)3.5 mphPartly Cloudy
5:00 PM84.2 °F71.6 °F66 %29.74 in6.2 miNE (50°)4.6 mphScattered Clouds
6:00 PM83.0 °F73.0 °F66 %29.74 in6.0 miNNE (20°)3.5 mphPartly Cloudy
6:08 PM82.4 °F73.4 °F74 %29.71 in5.6 miWNW (290°)9.2 mphRainLight Rain
7:00 PM82.4 °F69.8 °F66 %29.71 in6.2 miWSW (250°)3.5 mphMostly Cloudy
8:00 PM82.4 °F69.8 °F66 %29.68 in6.2 miEast (90°)3.5 mphMostly Cloudy
9:00 PM82.0 °F73.0 °F69 %29.71 in6.0 miNorth4.6 mphPartly Cloudy
9:00 PM82.4 °F73.4 °F74 %29.68 inNorth (360°)4.6 mphClear
10:00 PM82.4 °F73.4 °F74 %29.71 inNNW (340°)3.5 mphClear
11:00 PM80.6 °F69.8 °F70 %29.71 inNNW (340°)4.6 mphClear
Hourly data recorded from SABE, located miles away from Radial Conchillas, Uruguay







STORIES FROM OUR PARTNERS